Marshfield, MA

5:17 PM EST on November 21, 2019 (GMT -0500)
Marshfield

Weather History for KGHG - October, 2019

Change the Weather History Date:

Sunday, October 20, 2019

  Actual Average (KPYM) Record (KPYM)
Temperature  
Mean Temperature 48 °F -  
Max Temperature 62 °F 58 °F 77 °F (1965)
Min Temperature 35 °F 38 °F 25 °F (1970)
Degree Days  
Heating Degree Days 16    
Moisture  
Dew Point 45 °F    
Average Humidity 83    
Maximum Humidity 100    
Minimum Humidity 59    
Precipitation  
Precipitation 0.00 in - - ()
Sea Level Pressure  
Sea Level Pressure 30.06 in    
Wind  
Wind Speed 3 mph (SSE)    
Max Wind Speed 9 mph    
Max Gust Speed -    
Visibility 9 miles    
Events      
Averages and records for this station are not official NWS values.
T = Trace of Precipitation, MM = Missing Value Source: NWS Daily Summary

Daily Weather History Graph

Daily Weather History Graph

Search for Another Location

Airport or City:

Astronomy

Oct. 20, 2019 Rise Set
Actual Time 7:00 AM EDT 5:53 PM EDT
Civil Twilight 6:32 AM EDT 6:21 PM EDT
Nautical Twilight 5:59 AM EDT 6:54 PM EDT
Astronomical Twilight 5:27 AM EDT 7:26 PM EDT
Moon 10:54 PM EDT (10/20) 1:30 PM EDT (10/20)
Length of Visible Light 11h 49m
Length of Day
10h 52m
Waning Gibbous, 59% of the Moon is Illuminated
Oct 20
Waning Gibbous
Oct 21
Last Quarter
Oct 27
New
Nov 4
First Quarter
Nov 12
Full

Hourly Weather History & Observations

Time (EDT) Temp. Windchill Dew Point Humidity Pressure Visibility Wind Dir Wind Speed Gust Speed Precip Events Conditions
12:15 AM 41.0 °F 38.0 °F 41.0 °F 100% 30.05 in 10.0 mi West 4.6 mph - N/A   Clear
12:35 AM 41.0 °F 38.0 °F 41.0 °F 100% 30.05 in 10.0 mi West 4.6 mph - N/A   Clear
12:55 AM 41.0 °F 38.0 °F 41.0 °F 100% 30.05 in 9.0 mi West 4.6 mph - N/A   Clear
1:15 AM 39.2 °F 37.0 °F 39.2 °F 100% 30.05 in 8.0 mi WNW 3.5 mph - N/A   Clear
1:35 AM 39.2 °F 37.0 °F 37.4 °F 93% 30.05 in 5.0 mi West 3.5 mph - N/A   Clear
1:55 AM 39.2 °F - 39.2 °F 100% 30.05 in 9.0 mi Calm Calm - N/A   Clear
2:15 AM 39.2 °F 37.0 °F 39.2 °F 100% 30.05 in - West 3.5 mph - N/A   Unknown
2:35 AM 39.2 °F 37.0 °F 37.4 °F 93% 30.05 in 7.0 mi West 3.5 mph - N/A   Clear
2:55 AM 37.4 °F 34.9 °F 37.4 °F 100% 30.05 in 9.0 mi West 3.5 mph - N/A   Clear
3:15 AM 39.2 °F 35.9 °F 37.4 °F 93% 30.05 in 9.0 mi West 4.6 mph - N/A   Clear
3:35 AM 39.2 °F 35.9 °F 37.4 °F 93% 30.05 in 9.0 mi Variable 4.6 mph - N/A   Clear
3:55 AM 37.4 °F 33.8 °F 37.4 °F 100% 30.06 in 7.0 mi West 4.6 mph - N/A   Clear
4:15 AM 39.2 °F 35.9 °F 37.4 °F 93% 30.07 in 7.0 mi Variable 4.6 mph - N/A   Clear
4:35 AM 37.4 °F 34.9 °F 37.4 °F 100% 30.06 in 6.0 mi West 3.5 mph - N/A   Clear
4:55 AM 37.4 °F 34.9 °F 37.4 °F 100% 30.06 in 7.0 mi West 3.5 mph - N/A   Clear
5:15 AM 37.4 °F - 37.4 °F 100% 30.06 in 7.0 mi Calm Calm - N/A   Clear
5:35 AM 35.6 °F - 35.6 °F 100% 30.06 in 7.0 mi Calm Calm - N/A   Clear
5:55 AM 35.6 °F - 35.6 °F 100% 30.07 in 6.0 mi Calm Calm - N/A   Clear
6:15 AM 35.6 °F - 35.6 °F 100% 30.06 in 7.0 mi Calm Calm - N/A   Clear
6:35 AM 35.6 °F - 35.6 °F 100% 30.07 in 6.0 mi Calm Calm - N/A   Clear
6:55 AM 35.6 °F - 35.6 °F 100% 30.07 in 7.0 mi Calm Calm - N/A   Clear
7:15 AM 35.6 °F - 35.6 °F 100% 30.07 in - Calm Calm - N/A   Unknown
7:35 AM 37.4 °F - 37.4 °F 100% 30.08 in 6.0 mi Calm Calm - N/A   Clear
7:55 AM 39.2 °F - 39.2 °F 100% 30.07 in 3.0 mi Calm Calm - N/A   Clear
8:15 AM 42.8 °F - 42.8 °F 100% 30.07 in 7.0 mi Calm Calm - N/A   Clear
8:35 AM 44.6 °F - 44.6 °F 100% 30.09 in 9.0 mi Calm Calm - N/A   Clear
8:55 AM 46.4 °F - 46.4 °F 100% 30.08 in 6.0 mi North - - N/A   Clear
9:15 AM 50.0 °F - 48.2 °F 94% 30.08 in 8.0 mi Calm Calm - N/A   Clear
9:35 AM 53.6 °F - 50.0 °F 88% 30.08 in 10.0 mi Calm Calm - N/A   Clear
9:55 AM 57.2 °F - 50.0 °F 77% 30.10 in 10.0 mi Calm Calm - N/A   Clear
10:15 AM 57.2 °F - 50.0 °F 77% 30.09 in 10.0 mi Variable 4.6 mph - N/A   Clear
10:35 AM 57.2 °F - 48.2 °F 72% 30.09 in 10.0 mi Calm Calm - N/A   Clear
10:55 AM 59.0 °F - 46.4 °F 63% 30.10 in 10.0 mi North - - N/A   Clear
11:15 AM 59.0 °F - 44.6 °F 59% 30.09 in 10.0 mi SE 4.6 mph - N/A   Clear
11:35 AM 60.8 °F - 46.4 °F 59% 30.10 in 10.0 mi Variable 5.8 mph - N/A   Clear
11:55 AM 60.8 °F - 48.2 °F 63% 30.09 in 10.0 mi Variable 5.8 mph - N/A   Partly Cloudy
12:15 PM 60.8 °F - 48.2 °F 63% 30.09 in 10.0 mi Variable 6.9 mph - N/A   Mostly Cloudy
12:35 PM 60.8 °F - 48.2 °F 63% 30.07 in 10.0 mi ESE 9.2 mph - N/A   Partly Cloudy
12:55 PM 60.8 °F - 48.2 °F 63% 30.07 in 10.0 mi SE 9.2 mph - N/A   Clear
1:15 PM 60.8 °F - 48.2 °F 63% 30.06 in 10.0 mi ESE 8.1 mph - N/A   Clear
1:35 PM 60.8 °F - 48.2 °F 63% 30.05 in 10.0 mi ESE 9.2 mph - N/A   Clear
1:55 PM 62.6 °F - 48.2 °F 59% 30.06 in 10.0 mi SE 8.1 mph - N/A   Clear
2:15 PM 60.8 °F - 50.0 °F 68% 30.07 in - SSE 8.1 mph - N/A   Clear
2:35 PM 60.8 °F - 50.0 °F 68% 30.06 in 10.0 mi ESE 8.1 mph - N/A   Clear
2:55 PM 60.8 °F - 50.0 °F 68% 30.06 in 10.0 mi Variable 6.9 mph - N/A   Clear
3:15 PM 60.8 °F - 50.0 °F 68% 30.06 in 10.0 mi SE 6.9 mph - N/A   Clear
3:35 PM 60.8 °F - 50.0 °F 68% 30.06 in 10.0 mi SE 8.1 mph - N/A   Clear
3:55 PM 59.0 °F - 50.0 °F 72% 30.06 in 10.0 mi SE 6.9 mph - N/A   Clear
4:15 PM 59.0 °F - 50.0 °F 72% 30.06 in 10.0 mi SE 5.8 mph - N/A   Clear
4:35 PM 59.0 °F - 50.0 °F 72% 30.06 in 10.0 mi SE 4.6 mph - N/A   Clear
4:55 PM 59.0 °F - 50.0 °F 72% 30.06 in 10.0 mi Calm Calm - N/A   Clear
5:15 PM 59.0 °F - 51.8 °F 77% 30.05 in 10.0 mi Calm Calm - N/A   Clear
5:35 PM 59.0 °F - 51.8 °F 77% 30.05 in 10.0 mi Calm Calm - N/A   Clear
5:55 PM 57.2 °F - 51.8 °F 82% 30.04 in 10.0 mi Calm Calm - N/A   Clear
6:15 PM 57.2 °F - 50.0 °F 77% 30.04 in 1.0 mi SSE 3.5 mph - N/A   Haze
6:35 PM 57.2 °F - 50.0 °F 77% 30.04 in 2.0 mi Calm Calm - N/A   Haze
6:55 PM 57.2 °F - 48.2 °F 72% 30.04 in 10.0 mi SSE 5.8 mph - N/A   Clear
7:15 PM 57.2 °F - 48.2 °F 72% 30.04 in 10.0 mi SSE 4.6 mph - N/A   Clear
7:35 PM 57.2 °F - 48.2 °F 72% 30.04 in 10.0 mi SSE 5.8 mph - N/A   Clear
7:55 PM 55.4 °F - 50.0 °F 82% 30.05 in 10.0 mi SSE 5.8 mph - N/A   Clear
8:15 PM 55.4 °F - 50.0 °F 82% 30.05 in 10.0 mi Calm Calm - N/A   Clear
8:35 PM 55.4 °F - 50.0 °F 82% 30.06 in 10.0 mi SSE 5.8 mph - N/A   Scattered Clouds
8:55 PM 55.4 °F - 50.0 °F 82% 30.06 in 10.0 mi Calm Calm - N/A   Partly Cloudy
9:15 PM 55.4 °F - 50.0 °F 82% 30.06 in 10.0 mi Calm Calm - N/A   Partly Cloudy
9:35 PM 55.4 °F - 50.0 °F 82% 30.05 in 10.0 mi Calm Calm - N/A   Scattered Clouds
9:55 PM 55.4 °F - 48.2 °F 77% 30.05 in 10.0 mi Calm Calm - N/A   Scattered Clouds
10:15 PM 55.4 °F - 46.4 °F 72% 30.04 in 10.0 mi Calm Calm - N/A   Partly Cloudy
10:35 PM 55.4 °F - 48.2 °F 77% 30.03 in 10.0 mi ENE 3.5 mph - N/A   Mostly Cloudy
10:55 PM 55.4 °F - 48.2 °F 77% 30.04 in 10.0 mi East 6.9 mph - N/A   Overcast
11:15 PM 55.4 °F - 48.2 °F 77% 30.05 in 10.0 mi East 4.6 mph - N/A   Overcast
11:35 PM 55.4 °F - 48.2 °F 77% 30.06 in 10.0 mi ESE 4.6 mph - N/A   Mostly Cloudy
11:55 PM 55.4 °F - 48.2 °F 77% 30.05 in 10.0 mi ESE 5.8 mph - N/A   Overcast